This is the latest recevied weather packets stored in our database for station/object DO1SN-13. If no packets are shown the sender has not sent any weather packets the latest 10 day(s).
| Time | Temp. | Humidity | Pressure | Rain* | Wind** | Luminosity | Snow |
|---|---|---|---|---|---|---|---|
| 1787656903 | 21.11° C | - | 1016.6 hPa | 0 mm | - | - | - |
| 1787656539 | 21.11° C | - | 1016.4 hPa | 0 mm | - | - | - |
| 1787656175 | 21.11° C | - | 1016.6 hPa | 0 mm | - | - | - |
| 1787655811 | 22.22° C | - | 1016.6 hPa | 0 mm | - | - | - |
| 1787655447 | 22.22° C | - | 1016.6 hPa | 0 mm | - | - | - |
| 1787655083 | 22.78° C | - | 1016.5 hPa | 0 mm | - | - | - |
| 1787654718 | 22.78° C | - | 1016.6 hPa | 0 mm | - | - | - |
| 1787654354 | 22.78° C | - | 1016.5 hPa | 0 mm | - | - | - |
| 1787653990 | 22.78° C | - | 1016.5 hPa | 0 mm | - | - | - |
| 1787653626 | 22.78° C | - | 1016.5 hPa | 0 mm | - | - | - |
| 1787653262 | 22.78° C | - | 1016.4 hPa | 0 mm | - | - | - |
| 1787652898 | 22.78° C | - | 1016.4 hPa | 0 mm | - | - | - |
| 1787652534 | 22.78° C | - | 1016.3 hPa | 0 mm | - | - | - |
| 1787652169 | 22.78° C | - | 1016.2 hPa | 0 mm | - | - | - |
| 1787651805 | 22.22° C | - | 1016.2 hPa | 0 mm | - | - | - |
| 1787651441 | 22.22° C | - | 1016.1 hPa | 0 mm | - | - | - |
| 1787651077 | 23.89° C | - | 1016 hPa | 0 mm | - | - | - |
| 1787650713 | 22.22° C | - | 1016 hPa | 0 mm | - | - | - |
| 1787650349 | 21.11° C | - | 1016 hPa | 0 mm | - | - | - |
| 1787649984 | 22.22° C | - | 1015.8 hPa | 0 mm | - | - | - |
| 1787649620 | 22.22° C | - | 1015.9 hPa | 0 mm | - | - | - |
| 1787649256 | 22.22° C | - | 1015.8 hPa | 0 mm | - | - | - |
| 1787648892 | 21.67° C | - | 1015.7 hPa | 0 mm | - | - | - |
| 1787648528 | 21.67° C | - | 1015.7 hPa | 0 mm | - | - | - |
| 1787648164 | 20.56° C | - | 1015.6 hPa | 0 mm | - | - | - |
* Rain latest hour (hover to see other rain measurements)
** Current wind speed in m/s (hover to see current wind gust speed)